Pagina principale
METAR-TAF:

METAR-TAF

Aeroporti :

Springbok, Sudafrica

latitudine: 29-40S, longitudine: 17-53E, altezza: 1006 m

Osservazione

Il bollettino è stato emesso 7 ore e 6 minuti fa, alle 07:51 UTC
Vento 4 kt da ovest/sud-ovest
Temperature 22°C
Umidità 17%
Pressione 1017 hPa
Visibilità 10 km o più
nessuna nube inferiore a 1500 m e nessun cumulonembo

METAR: FASB 110751Z 25004KT CAVOK 22/M04 Q1017

Ora: 16:57 (14:57 UTC)


TAF: mancante

Osservazioni e previsioni meteorologiche di più di 4000 aeroporti (messaggi METAR e TAF).

Le stazioni disponibili sono rappresentate dai dischi gialli e rossi sulla carta.

Puntare il mouse per vedere il nome della stazione.

Clicca sopra per visualizzare le osservazioni e previsioni meteorologiche.

Per cambiare la mappa : fare clic sui pulsanti verdi con una croce nera per ingrandire, il pulsante verde con un trattino per diminuire, o sulla freccia verde per le mappe adiacenti.


METAR-TAF: